User: anonymous   Login
Location: Koussan�
(15.2012°N, 12.5548°W)
Time: 22:13:48
(UTC+00:00)
Language:

CSL-04 Debris - Orbit

View from above orbital plane
View from above orbital plane
View from above satellite
View from above satellite

Ground track
Ground track

The orbit data is extracted from the following two-line orbital elements,

1 25733U 99025D   21017.69409688  .00000097  00000-0  71448-4 0  9990
2 25733  98.9280  52.8031 0015609  75.5788 284.7117 14.16423217120024
Epoch (UTC): 17 January 2021 16:39:29
Eccentricity: 0.0015609
inclination: 98.9280°
perigee height: 826 km
apogee height: 849 km
right ascension of ascending node: 52.8031°
argument of perigee: 75.5788°
revolutions per day: 14.16423217
mean anomaly at epoch: 284.7117°
orbit number at epoch: 12002

The dashed part of the orbit path shows where the satellite is in the earth's shadow,  

DLR